| time (UTC) | temp C | wind direction | speed KPH | gust KPH | rain 1hr cm | rain 24hr cm | rain mn cm | humidity % | barometer mb |
| 20260504151015 | 17 | 211 | 9.7 | 27.4 | 0.00 | 0.00 | 0.00 | 37 | 1014.0 |
| 20260504150516 | 17 | 325 | 8.0 | 27.4 | 0.00 | 0.00 | 0.00 | 37 | 1014.1 |
| 20260504141020 | 16 | 250 | 8.0 | 22.5 | 0.00 | 0.00 | 0.00 | 43 | 1014.7 |
| 20260504140516 | 15 | 229 | 4.8 | 17.7 | 0.00 | 0.00 | 0.00 | 43 | 1014.7 |
| 20260504130516 | 13 | 191 | 6.4 | 19.3 | 0.00 | 0.00 | 0.00 | 47 | 1015.3 |
| 20260504110515 | 10 | 221 | 3.2 | 8.0 | 0.00 | 0.00 | 0.00 | 56 | 1014.0 |
| 20260504100516 | 8 | 309 | 0.0 | 3.2 | 0.00 | 0.00 | 0.00 | 58 | 1013.3 |
| 20260504081539 | 8 | 250 | 1.6 | 6.4 | 0.00 | 0.00 | 0.00 | 58 | 1013.2 |
| 20260504081016 | 8 | 178 | 0.0 | 11.3 | 0.00 | 0.00 | 0.00 | 58 | 1013.1 |
| 20260504080522 | 8 | 178 | 1.6 | 11.3 | 0.00 | 0.00 | 0.00 | 59 | 1013.0 |
| 20260504050516 | 5 | 9 | 0.0 | 3.2 | 0.00 | 0.00 | 0.00 | 82 | 1012.4 |
| 20260504045516 | 5 | 0 | 0.0 | 3.2 | 0.00 | 0.00 | 0.00 | 78 | 1012.4 |
| 20260504045021 | 5 | 0 | 0.0 | 1.6 | 0.00 | 0.00 | 0.00 | 79 | 1012.3 |
| 20260504044532 | 5 | 0 | 0.0 | 1.6 | 0.00 | 0.00 | 0.00 | 80 | 1012.3 |
| 20260504044014 | 5 | 41 | 0.0 | 1.6 | 0.00 | 0.00 | 0.00 | 80 | 1012.2 |
| 20260504043516 | 5 | 0 | 0.0 | 1.6 | 0.00 | 0.00 | 0.00 | 79 | 1012.2 |
| 20260504043045 | 5 | 0 | 0.0 | 1.6 | 0.00 | 0.00 | 0.00 | 77 | 1012.3 |
| 20260504042513 | 5 | 309 | 0.0 | 1.6 | 0.00 | 0.00 | 0.00 | 76 | 1012.2 |
| 20260504042013 | 5 | 0 | 0.0 | 1.6 | 0.00 | 0.00 | 0.00 | 75 | 1012.2 |
| 20260504041534 | 5 | 0 | 0.0 | 1.6 | 0.00 | 0.00 | 0.00 | 76 | 1012.1 |
| 20260504041015 | 5 | 0 | 0.0 | 3.2 | 0.00 | 0.00 | 0.00 | 76 | 1012.2 |
| 20260504040515 | 5 | 291 | 0.0 | 3.2 | 0.00 | 0.00 | 0.00 | 75 | 1012.2 |
| 20260504040030 | 5 | 0 | 0.0 | 1.6 | 0.00 | 0.00 | 0.00 | 74 | 1012.1 |
| 20260504035513 | 5 | 0 | 0.0 | 1.6 | 0.00 | 0.00 | 0.00 | 73 | 1012.1 |
| 20260504035013 | 6 | 0 | 0.0 | 1.6 | 0.00 | 0.00 | 0.00 | 74 | 1012.1 |
| 20260504034539 | 6 | 325 | 0.0 | 3.2 | 0.00 | 0.00 | 0.00 | 74 | 1012.2 |
| 20260504034013 | 6 | 0 | 0.0 | 3.2 | 0.00 | 0.00 | 0.00 | 74 | 1012.1 |
| 20260504033514 | 6 | 221 | 0.0 | 3.2 | 0.00 | 0.00 | 0.00 | 74 | 1012.1 |
| 20260504033030 | 6 | 0 | 0.0 | 1.6 | 0.00 | 0.00 | 0.00 | 73 | 1012.0 |
| 20260504032512 | 6 | 0 | 0.0 | 1.6 | 0.00 | 0.00 | 0.00 | 72 | 1012.0 |
| 20260504032012 | 6 | 291 | 0.0 | 1.6 | 0.00 | 0.00 | 0.00 | 71 | 1011.9 |
| 20260504031535 | 6 | 0 | 0.0 | 1.6 | 0.00 | 0.00 | 0.00 | 72 | 1012.0 |
| 20260504031012 | 6 | 0 | 0.0 | 1.6 | 0.00 | 0.00 | 0.00 | 72 | 1012.0 |
| 20260504030513 | 6 | 0 | 0.0 | 3.2 | 0.00 | 0.00 | 0.00 | 70 | 1012.1 |
| 20260504030036 | 6 | 0 | 0.0 | 3.2 | 0.00 | 0.00 | 0.00 | 70 | 1012.1 |
| 20260504025514 | 6 | 137 | 0.0 | 3.2 | 0.00 | 0.00 | 0.00 | 70 | 1012.1 |
| 20260504025019 | 6 | 51 | 0.0 | 1.6 | 0.00 | 0.00 | 0.00 | 71 | 1012.2 |
| 20260504024530 | 6 | 0 | 0.0 | 1.6 | 0.00 | 0.00 | 0.00 | 70 | 1012.2 |
| 20260504024015 | 6 | 309 | 0.0 | 1.6 | 0.00 | 0.00 | 0.00 | 68 | 1012.3 |
| 20260504023515 | 7 | 0 | 0.0 | 3.2 | 0.00 | 0.00 | 0.00 | 67 | 1012.3 |
| 20260504023031 | 7 | 0 | 0.0 | 3.2 | 0.00 | 0.00 | 0.00 | 67 | 1012.3 |
| 20260504022514 | 7 | 221 | 1.6 | 3.2 | 0.00 | 0.00 | 0.00 | 67 | 1012.2 |
| 20260504022015 | 7 | 190 | 1.6 | 3.2 | 0.00 | 0.00 | 0.00 | 67 | 1012.3 |
| 20260504021537 | 7 | 51 | 0.0 | 1.6 | 0.00 | 0.00 | 0.00 | 64 | 1012.3 |
| 20260504021013 | 7 | 0 | 0.0 | 1.6 | 0.00 | 0.00 | 0.00 | 63 | 1012.3 |
| 20260504020515 | 7 | 0 | 0.0 | 1.6 | 0.00 | 0.00 | 0.00 | 62 | 1012.2 |
| 20260504020036 | 7 | 51 | 0.0 | 1.6 | 0.00 | 0.00 | 0.00 | 62 | 1012.1 |
| 20260504015515 | 7 | 0 | 0.0 | 1.6 | 0.00 | 0.00 | 0.00 | 61 | 1012.2 |
| 20260504015013 | 7 | 51 | 0.0 | 1.6 | 0.00 | 0.00 | 0.00 | 63 | 1012.1 |
| 20260504014532 | 7 | 0 | 0.0 | 3.2 | 0.00 | 0.00 | 0.00 | 61 | 1012.1 |
| 20260504014014 | 7 | 9 | 0.0 | 3.2 | 0.00 | 0.00 | 0.00 | 62 | 1012.1 |
| 20260504013516 | 7 | 0 | 0.0 | 3.2 | 0.00 | 0.00 | 0.00 | 59 | 1012.0 |
| 20260504013035 | 8 | 67 | 1.6 | 3.2 | 0.00 | 0.00 | 0.00 | 61 | 1011.9 |
| 20260504012515 | 8 | 0 | 0.0 | 1.6 | 0.00 | 0.00 | 0.00 | 61 | 1011.9 |
| 20260504012013 | 8 | 9 | 0.0 | 1.6 | 0.00 | 0.00 | 0.00 | 58 | 1011.9 |
| 20260504011530 | 8 | 0 | 0.0 | 3.2 | 0.00 | 0.00 | 0.00 | 56 | 1011.8 |
| 20260504011016 | 8 | 0 | 0.0 | 3.2 | 0.00 | 0.00 | 0.00 | 58 | 1011.7 |
| 20260504010515 | 8 | 51 | 0.0 | 3.2 | 0.00 | 0.00 | 0.00 | 59 | 1011.7 |
| 20260504010032 | 9 | 9 | 0.0 | 3.2 | 0.00 | 0.00 | 0.00 | 58 | 1011.6 |
| 20260504005515 | 9 | 0 | 0.0 | 1.6 | 0.00 | 0.00 | 0.00 | 53 | 1011.5 |
| 20260504005015 | 10 | 0 | 0.0 | 1.6 | 0.00 | 0.00 | 0.00 | 51 | 1011.6 |
| 20260504004541 | 10 | 111 | 0.0 | 1.6 | 0.00 | 0.00 | 0.00 | 50 | 1011.5 |
| 20260504004013 | 10 | 51 | 0.0 | 3.2 | 0.00 | 0.00 | 0.00 | 50 | 1011.5 |
| 20260504003513 | 10 | 51 | 0.0 | 3.2 | 0.00 | 0.00 | 0.00 | 49 | 1011.4 |
| 20260504003028 | 11 | 102 | 0.0 | 3.2 | 0.00 | 0.00 | 0.00 | 47 | 1011.3 |
| 20260504002515 | 11 | 0 | 0.0 | 3.2 | 0.00 | 0.00 | 0.00 | 47 | 1011.2 |
| 20260504002016 | 11 | 309 | 0.0 | 3.2 | 0.00 | 0.00 | 0.00 | 42 | 1011.2 |
| 20260504001535 | 11 | 153 | 0.0 | 3.2 | 0.00 | 0.00 | 0.00 | 40 | 1011.1 |
| 20260504001015 | 12 | 325 | 0.0 | 3.2 | 0.00 | 0.00 | 0.00 | 38 | 1011.1 |
| 20260504000514 | 12 | 221 | 0.0 | 3.2 | 0.00 | 0.00 | 0.00 | 37 | 1011.1 |
| 20260504000029 | 12 | 178 | 0.0 | 4.8 | 0.00 | 0.00 | 0.00 | 37 | 1011.1 |
| 20260503235514 | 12 | 338 | 1.6 | 8.0 | 0.00 | 0.00 | 0.00 | 37 | 1011.1 |
| 20260503235012 | 12 | 291 | 0.0 | 11.3 | 0.00 | 0.00 | 0.00 | 35 | 1010.9 |
| 20260503234535 | 13 | 34 | 4.8 | 11.3 | 0.00 | 0.00 | 0.00 | 34 | 1010.8 |
| 20260503234016 | 13 | 241 | 3.2 | 12.9 | 0.00 | 0.00 | 0.00 | 34 | 1010.8 |
| 20260503233516 | 13 | 321 | 3.2 | 12.9 | 0.00 | 0.00 | 0.00 | 33 | 1010.6 |
| 20260503233029 | 13 | 295 | 4.8 | 12.9 | 0.00 | 0.00 | 0.00 | 33 | 1010.5 |
| 20260503232518 | 13 | 215 | 6.4 | 14.5 | 0.00 | 0.00 | 0.00 | 33 | 1010.4 |
| 20260503232015 | 13 | 282 | 1.6 | 14.5 | 0.00 | 0.00 | 0.00 | 33 | 1010.5 |
| 20260503231530 | 13 | 295 | 3.2 | 16.1 | 0.00 | 0.00 | 0.00 | 33 | 1010.4 |
| 20260503231018 | 13 | 265 | 3.2 | 16.1 | 0.00 | 0.00 | 0.00 | 33 | 1010.4 |
| 20260503230515 | 13 | 298 | 3.2 | 16.1 | 0.00 | 0.00 | 0.00 | 32 | 1010.4 |
| 20260503230028 | 13 | 295 | 4.8 | 16.1 | 0.00 | 0.00 | 0.00 | 32 | 1010.2 |
| 20260503225513 | 13 | 279 | 6.4 | 12.9 | 0.00 | 0.00 | 0.00 | 31 | 1010.2 |
| 20260503225012 | 13 | 291 | 3.2 | 12.9 | 0.00 | 0.00 | 0.00 | 32 | 1010.2 |
| 20260503224532 | 13 | 330 | 4.8 | 17.7 | 0.00 | 0.00 | 0.00 | 31 | 1010.2 |
| 20260503224017 | 13 | 277 | 6.4 | 17.7 | 0.00 | 0.00 | 0.00 | 29 | 1010.1 |
| 20260503223519 | 13 | 0 | 3.2 | 17.7 | 0.00 | 0.00 | 0.00 | 29 | 1010.2 |
| 20260503223032 | 13 | 291 | 3.2 | 17.7 | 0.00 | 0.00 | 0.00 | 29 | 1010.3 |
| 20260503222515 | 13 | 298 | 8.0 | 17.7 | 0.00 | 0.00 | 0.00 | 28 | 1010.3 |
| 20260503222016 | 13 | 306 | 4.8 | 17.7 | 0.00 | 0.00 | 0.00 | 27 | 1010.2 |
| 20260503221540 | 14 | 341 | 4.8 | 16.1 | 0.00 | 0.00 | 0.00 | 30 | 1010.2 |
| 20260503221017 | 14 | 292 | 4.8 | 19.3 | 0.00 | 0.00 | 0.00 | 29 | 1010.3 |
| 20260503220515 | 14 | 301 | 6.4 | 19.3 | 0.00 | 0.00 | 0.00 | 28 | 1010.3 |
| 20260503220037 | 14 | 302 | 4.8 | 17.7 | 0.00 | 0.00 | 0.00 | 27 | 1010.4 |
| 20260503215517 | 14 | 247 | 8.0 | 17.7 | 0.00 | 0.00 | 0.00 | 27 | 1010.3 |
| 20260503215014 | 14 | 280 | 6.4 | 17.7 | 0.00 | 0.00 | 0.00 | 28 | 1010.2 |
| 20260503214546 | 13 | 196 | 4.8 | 27.4 | 0.00 | 0.00 | 0.00 | 29 | 1010.2 |
| 20260503214017 | 13 | 291 | 8.0 | 27.4 | 0.00 | 0.00 | 0.00 | 29 | 1010.2 |
| 20260503213518 | 13 | 336 | 8.0 | 20.9 | 0.00 | 0.00 | 0.00 | 28 | 1010.1 |
| 20260503213035 | 13 | 279 | 9.7 | 27.4 | 0.00 | 0.00 | 0.00 | 28 | 1010.2 |
| 20260503212517 | 13 | 286 | 9.7 | 27.4 | 0.00 | 0.00 | 0.00 | 29 | 1010.1 |
| 20260503212018 | 13 | 303 | 12.9 | 24.1 | 0.00 | 0.00 | 0.00 | 29 | 1009.9 |
| 20260503211531 | 13 | 287 | 6.4 | 22.5 | 0.00 | 0.00 | 0.00 | 30 | 1010.0 |
| 20260503211016 | 13 | 254 | 9.7 | 22.5 | 0.00 | 0.00 | 0.00 | 30 | 1010.0 |
| 20260503210516 | 13 | 269 | 8.0 | 29.0 | 0.00 | 0.00 | 0.00 | 30 | 1010.1 |
| 20260503210031 | 13 | 327 | 9.7 | 29.0 | 0.00 | 0.00 | 0.00 | 30 | 1009.9 |
| 20260503205517 | 13 | 323 | 9.7 | 25.7 | 0.00 | 0.00 | 0.00 | 30 | 1009.8 |
| 20260503205019 | 13 | 321 | 6.4 | 25.7 | 0.00 | 0.00 | 0.00 | 31 | 1009.9 |
| 20260503204542 | 13 | 309 | 6.4 | 19.3 | 0.00 | 0.00 | 0.00 | 32 | 1010.1 |
| 20260503204016 | 13 | 250 | 8.0 | 24.1 | 0.00 | 0.00 | 0.00 | 30 | 1010.1 |
| 20260503203520 | 13 | 214 | 3.2 | 24.1 | 0.00 | 0.00 | 0.00 | 31 | 1010.0 |
| 20260503203033 | 13 | 271 | 9.7 | 24.1 | 0.00 | 0.00 | 0.00 | 33 | 1010.2 |
| 20260503202521 | 13 | 286 | 8.0 | 22.5 | 0.00 | 0.00 | 0.00 | 32 | 1010.2 |
| 20260503202017 | 13 | 330 | 8.0 | 22.5 | 0.00 | 0.00 | 0.00 | 33 | 1010.2 |
| 20260503201537 | 13 | 17 | 9.7 | 19.3 | 0.00 | 0.00 | 0.00 | 32 | 1010.1 |
| 20260503201017 | 13 | 271 | 6.4 | 19.3 | 0.00 | 0.00 | 0.00 | 32 | 1010.1 |
| 20260503200517 | 13 | 325 | 8.0 | 30.6 | 0.00 | 0.00 | 0.00 | 34 | 1010.3 |
| 20260503200032 | 13 | 360 | 9.7 | 30.6 | 0.00 | 0.00 | 0.00 | 34 | 1010.2 |
| 20260503195517 | 12 | 310 | 9.7 | 30.6 | 0.00 | 0.00 | 0.00 | 33 | 1010.2 |
| 20260503195017 | 12 | 221 | 8.0 | 19.3 | 0.00 | 0.00 | 0.00 | 33 | 1010.3 |
| 20260503194534 | 12 | 254 | 11.3 | 19.3 | 0.00 | 0.00 | 0.00 | 35 | 1010.3 |
| 20260503194018 | 13 | 219 | 9.7 | 19.3 | 0.00 | 0.00 | 0.00 | 34 | 1010.3 |
| 20260503193517 | 12 | 280 | 6.4 | 19.3 | 0.00 | 0.00 | 0.00 | 37 | 1010.5 |
| 20260503193034 | 12 | 331 | 9.7 | 27.4 | 0.00 | 0.00 | 0.00 | 35 | 1010.5 |
| 20260503192516 | 12 | 286 | 8.0 | 27.4 | 0.00 | 0.00 | 0.00 | 37 | 1010.6 |
| 20260503192016 | 12 | 305 | 11.3 | 27.4 | 0.00 | 0.00 | 0.00 | 35 | 1010.8 |
| 20260503191534 | 12 | 296 | 8.0 | 22.5 | 0.00 | 0.00 | 0.00 | 38 | 1010.8 |
| 20260503191017 | 12 | 202 | 8.0 | 19.3 | 0.00 | 0.00 | 0.00 | 37 | 1010.8 |
| 20260503190518 | 12 | 68 | 4.8 | 29.0 | 0.00 | 0.00 | 0.00 | 39 | 1010.7 |
| 20260503190041 | 12 | 330 | 8.0 | 29.0 | 0.00 | 0.00 | 0.00 | 38 | 1010.9 |
| 20260503185517 | 12 | 316 | 8.0 | 25.7 | 0.00 | 0.00 | 0.00 | 38 | 1010.9 |
| 20260503185020 | 12 | 315 | 12.9 | 29.0 | 0.00 | 0.00 | 0.00 | 41 | 1011.1 |
| 20260503184530 | 12 | 286 | 11.3 | 29.0 | 0.00 | 0.00 | 0.00 | 38 | 1011.0 |
| 20260503184014 | 12 | 221 | 8.0 | 24.1 | 0.00 | 0.00 | 0.00 | 41 | 1011.0 |
| 20260503183516 | 11 | 121 | 11.3 | 24.1 | 0.00 | 0.00 | 0.00 | 38 | 1011.0 |
| 20260503183038 | 11 | 324 | 11.3 | 30.6 | 0.00 | 0.00 | 0.00 | 39 | 1011.2 |
| 20260503182517 | 11 | 200 | 8.0 | 30.6 | 0.00 | 0.00 | 0.00 | 39 | 1011.2 |
| 20260503182016 | 11 | 271 | 14.5 | 30.6 | 0.00 | 0.00 | 0.00 | 41 | 1011.2 |
| 20260503181549 | 11 | 292 | 8.0 | 19.3 | 0.00 | 0.00 | 0.00 | 41 | 1011.1 |
| 20260503181017 | 11 | 291 | 8.0 | 19.3 | 0.00 | 0.00 | 0.00 | 41 | 1011.0 |
| 20260503180517 | 11 | 76 | 11.3 | 20.9 | 0.00 | 0.00 | 0.00 | 40 | 1011.1 |
| 20260503180045 | 11 | 339 | 8.0 | 20.9 | 0.00 | 0.00 | 0.00 | 42 | 1011.0 |
| 20260503175520 | 11 | 288 | 9.7 | 20.9 | 0.00 | 0.00 | 0.00 | 43 | 1011.1 |
| 20260503175018 | 11 | 242 | 8.0 | 20.9 | 0.00 | 0.00 | 0.00 | 42 | 1011.1 |
| 20260503174534 | 11 | 227 | 8.0 | 20.9 | 0.00 | 0.00 | 0.00 | 41 | 1011.0 |
| 20260503174019 | 11 | 303 | 6.4 | 19.3 | 0.00 | 0.00 | 0.00 | 40 | 1011.1 |
| 20260503173516 | 11 | 213 | 8.0 | 30.6 | 0.00 | 0.00 | 0.00 | 42 | 1011.0 |
| 20260503173031 | 10 | 279 | 4.8 | 30.6 | 0.00 | 0.00 | 0.00 | 42 | 1011.2 |
| 20260503172516 | 11 | 303 | 6.4 | 29.0 | 0.00 | 0.00 | 0.00 | 43 | 1011.2 |
| 20260503172017 | 10 | 288 | 12.9 | 29.0 | 0.00 | 0.00 | 0.00 | 40 | 1011.3 |
| 20260503171530 | 11 | 325 | 14.5 | 29.0 | 0.00 | 0.00 | 0.00 | 39 | 1011.2 |
| 20260503171017 | 11 | 284 | 8.0 | 24.1 | 0.00 | 0.00 | 0.00 | 40 | 1011.2 |
| 20260503170516 | 10 | 144 | 9.7 | 37.0 | 0.00 | 0.00 | 0.00 | 42 | 1011.2 |